Overview Statistics Trail Chart Weather Telemetry Raw packets
 

This is the latest recevied weather packets stored in our database for station/object GBTWP-2. If no packets are shown the sender has not sent any weather packets the latest 10 day(s).

<< 101 102 103 104 105 106 107 >>
Time Temp. Humidity Pressure Rain* Wind** Luminosity Snow
1787918217 12.78° C 95% 1024.6 hPa 0 mm - 38 W/m² -
1787917917 12.78° C 95% 1024.3 hPa 0 mm - 34 W/m² -
1787917619 12.22° C 95% 1024.2 hPa 0 mm - 29 W/m² -
1787917320 12.22° C 95% 1024.1 hPa 0 mm - 25 W/m² -
1787917021 12.22° C 95% 1024.2 hPa 0 mm - 22 W/m² -
1787916720 12.22° C 95% 1024.3 hPa 0 mm - 20 W/m² -
1787916420 12.22° C 95% 1023.9 hPa 0 mm - 16 W/m² -
1787916120 12.22° C 95% 1023.8 hPa 0 mm - 14 W/m² -
1787915821 11.67° C 95% 1023.7 hPa 0 mm - 11 W/m² -
1787915518 12.22° C 95% 1023.7 hPa 0 mm - 8 W/m² -
1787915225 12.22° C 95% 1023.4 hPa 0 mm - 6 W/m² -
1787914920 11.67° C 95% 1023.4 hPa 0 mm - 4 W/m² -
1787914620 12.22° C 94% 1023.4 hPa 0 mm - 3 W/m² -
1787914320 12.22° C 95% 1023.6 hPa 0 mm - 2 W/m² -
1787914020 12.22° C 94% 1023.5 hPa 0 mm - 1 W/m² -
1787913720 12.22° C 94% 1023.5 hPa 0 mm - 0 W/m² -
1787913424 12.22° C 95% 1023.4 hPa 0 mm - 0 W/m² -
1787913119 11.67° C 94% 1023.4 hPa 0 mm - 0 W/m² -
1787912520 12.22° C 93% 1023.5 hPa 0 mm - 0 W/m² -
1787912220 12.22° C 94% 1023.4 hPa 0 mm - 0 W/m² -
1787911920 12.22° C 94% 1023.3 hPa 0 mm - 0 W/m² -
1787911620 12.22° C 94% 1023.2 hPa 0 mm - 0 W/m² -
1787911320 12.22° C 95% 1023.2 hPa 0 mm - 0 W/m² -
1787911020 12.22° C 94% 1023.4 hPa 0 mm - 0 W/m² -
1787910720 12.22° C 94% 1023.2 hPa 0 mm - 0 W/m² -

* Rain latest hour (hover to see other rain measurements)
** Current wind speed in m/s (hover to see current wind gust speed)